Regional Weather Roundup
Issued by NWS Boston, MA

Home | Current Version | Previous Version | Text Only | Print | Product List | Glossary On
Versions: 1 2 3 4 5 6 7 8 9 10 11 12 13 14 15 16 17 18 19 20 21 22 23 24 25 26 27 28 29 30 31 32 33 34 35 36 37 38 39 40 41 42 43 44 45 46 47 48 49 50
000
ASUS41 KBOX 011110
RWRBOX

REGIONAL WEATHER ROUNDUP
NATIONAL WEATHER SERVICE TAUNTON MA
600 AM EST SUN MAR 01 2015

NOTE:  "FAIR" INDICATES FEW OR NO CLOUDS BELOW 12,000 FEET WITH NO
SIGNIFICANT WEATHER AND/OR OBSTRUCTIONS TO VISIBILITY.  THE FOLLOWING
OBSERVATION LOCATIONS DO NOT REPORT PRESENT WEATHER...PROVINCETOWN...
SMITHFIELD...BLOCK ISLAND...KEENE...AND OXFORD.

MAZALL-011200-
EASTERN MASSACHUSETTS

CITY           SKY/WX    TMP DP  RH WIND       PRES   REMARKS
BOSTON         PTCLDY    15   4  61 CALM      30.67F
BEVERLY        PTCLDY     3  -4  72 CALM      30.66S
LAWRENCE       MOCLDY     6   2  83 S3        30.68S
BEDFORD        MOCLDY    -1  -5  82 CALM      30.66F
BLUE HILL        N/A     16  -1  47 NW6       30.61F WCI   7
NORWOOD        PTCLDY    -6 -10  83 CALM      30.68F
MARSHFIELD     PTCLDY     7   3  85 W3        30.68F
PLYMOUTH       PTCLDY    -2  -6  83 E3        30.66F
TAUNTON        PTCLDY    -2  -6  83 CALM      30.67F
NEW BEDFORD    PTCLDY     0  -4  83 CALM      30.67F
$$

MAZALL-011200-
CAPE COD AND THE ISLANDS

CITY           SKY/WX    TMP DP  RH WIND       PRES   REMARKS
FALMOUTH       PTCLDY     0  -6  78 CALM      30.67F
HYANNIS        PTCLDY     3  -1  83 CALM      30.67S
CHATHAM        CLEAR      9   6  88 CALM      30.69S
PROVINCETOWN   CLEAR      7   3  85 SW3       30.67S
NANTUCKET      CLEAR     10   8  92 CALM      30.69S
MARTHAS VNYRD  PTCLDY     1  -6  72 CALM      30.68F
$$

MAZALL-011200-
CENTRAL AND WESTERN MASSACHUSETTS

CITY           SKY/WX    TMP DP  RH WIND       PRES   REMARKS
WORCESTER      MOCLDY    15  -1  49 W5        30.59S WCI   8
FITCHBURG      PTCLDY     9   1  70 CALM      30.66S
ORANGE         MOCLDY    -3  -7  82 CALM      30.65S
SPRINGFIELD    CLOUDY     1  -4  82 CALM      30.67R
WESTFIELD      MOCLDY     4  -2  76 CALM      30.68R
NORTH ADAMS    MOCLDY     0  -5  79 E3        30.65R
PITTSFIELD     CLOUDY     1  -3  83 CALM      30.57R
$$

RIZALL-011200-
RHODE ISLAND

CITY           SKY/WX    TMP DP  RH WIND       PRES   REMARKS
PROVIDENCE     PTCLDY    10   2  69 W3        30.69S
NEWPORT        PTCLDY     8   3  80 CALM      30.67F
BLOCK ISLAND   PTCLDY    19   7  58 CALM      30.66F
SMITHFIELD     PTCLDY    10  -6  48 CALM      30.64R
WESTERLY       PTCLDY     4   0  83 CALM      30.70S
$$

CTZALL-011200-
CONNECTICUT

CITY           SKY/WX    TMP DP  RH WIND       PRES   REMARKS
BRADLEY INTL   MOCLDY     8  -1  66 NW3       30.68R
HARTFORD       PTCLDY     8   4  83 CALM      30.70S
BRIDGEPORT     MOCLDY    16   6  65 N5        30.69S WCI   9
DANBURY        CLOUDY     9  -1  64 CALM      30.67S
GROTON         PTCLDY     8   5  87 N3        30.70S
NEW HAVEN      CLOUDY    13   6  74 CALM      30.69R
CHESTER        FAIR      21   5  49 CALM      30.67R
MERIDEN        MOCLDY     9   3  77 CALM      30.70R
WILLIMANTIC    PTCLDY     2  -4  76 CALM      30.70R
OXFORD         CLOUDY    12  -2  52 CALM      30.64R
$$

MEZ002-015-021-024-NHZ003-005-008-011-012-014-VTZ005-008-011200-
NORTHERN NEW ENGLAND

CITY           SKY/WX    TMP DP  RH WIND       PRES   REMARKS
PORTLAND ME    PTCLDY     2  -4  76 W6        30.66S WCI  -9
BANGOR ME      PTCLDY   -11 -16  78 CALM      30.66S
CONCORD NH     PTCLDY    -6 -11  79 CALM      30.65S
MANCHESTER NH  MOCLDY     1  -3  83 CALM      30.65R
NASHUA NH      MOCLDY     1  -5  76 CALM      30.67F
PORTSMOUTH NH  MOCLDY     2  -4  74 W2        30.64S
JAFFREY NH     PTCLDY    -4  -9  79 S3        30.59F
KEENE NH       FAIR      -2  -6  84 CALM      30.65R
BURLINGTON VT  PTCLDY     1  -6  72 E3        30.63S
MT. WASHINGTON PTCLDY     7 -22  25 W25         N/A  WCI -15
$$

NYZ052-076-011200-
EASTERN NEW YORK

CITY           SKY/WX    TMP DP  RH WIND       PRES   REMARKS
ALBANY         CLOUDY     8   1  73 CALM      30.67R
NEW YORK CITY  CLOUDY    26   6  42 CALM      30.69S
$$

ANZALL-011200-
MARINE OBSERVATIONS

STATION/POSITION TIME  TEMP    WIND        PRES    VSBY  WAVE
                       AIR SEA DIR/SP/G                  HT/PER
                 (UTC) (F)     (DEG/KT/KT) (MB)    (MI)  (FT/S)
BOSTON BUOY      1050   24 36  330/  4/  6 1038.6F         1/10
BUZZARDS BAY     1000          320/  5/  6 1039.8S
NANTUCKET SOUND  1050   25 31  270/  2/  4 1039.5R         0
MASS BAY-STELLWA 1004   24 35  300/  6/ 10   N/A    1 7/8  2/11
ISLE OF SHOALS   1100   20     320/  8/  9 1037.3F
S OF BLOCK IS    1008      37                N/A           2/ 8
$$

......................KEY.........................
  SKY/WX - SKY CONDITION/PRESENT WEATHER
  TMP    - TEMPERATURE IN FAHRENHEIT
  DWPT   - DEWPOINT IN FAHRENHEIT
  RH     - RELATIVE HUMIDITY IN PERCENT
  WIND   - DIRECTION AND SPEED IN MPH
  PRES   - MEAN SEA LEVEL PRESSURE IN INCHES OF HG
  WCI    - WIND CHILL INDEX
  VSB    - VISIBILITY IN MILES
  HX     - HEAT INDEX
  TC     - TEMPERATURE IN CELSIUS
  VRB    - VARIABLE WIND DIRECTION
  N/A    - NOT AVAILABLE


USA.gov is the U.S. government's official web portal to all federal, state and local government web resources and services.